Regional Weather Roundup
Issued by NWS Kansas City/Pleasant Hill, MO

Home | Current Version | Previous Version | Text Only | Print | Product List | Glossary On
Versions: 1 2 3 4 5 6 7 8 9 10 11 12 13 14 15 16 17 18 19 20 21 22 23 24 25 26 27 28 29 30 31 32 33 34 35 36 37 38 39 40 41 42 43 44 45 46 47 48 49 50
000
ASUS43 KEAX 250710
RWREAX

WEATHER ROUNDUP FOR EASTERN KANSAS AND NORTHWEST MISSOURI
NATIONAL WEATHER SERVICE KANSAS CITY/PLEASANT HILL MO
100 AM CST SAT FEB 25 2017

KSZ040-057-103>105-MOZ028-029-037-043-250800-
...KANSAS CITY METROPOLITAN AREA...

CITY           SKY/WX    TMP DP  RH WIND       PRES   REMARKS
K.C. INTL      CLOUDY    25  19  78 W9        30.07R WCI  15
K.C. DOWNTOWN  CLOUDY    28  18  66 W12       30.09R WCI  18
LEES SUMMIT    CLOUDY    26  18  71 W14       30.07R WCI  14
OLATHE - IXD   CLOUDY    24  18  77 W10       30.10R WCI  14
OLATHE - OJC   CLOUDY    24  19  81 W10       30.08R WCI  14
LAWRENCE       CLEAR     23  18  81 W8        30.11R WCI  14

$$

MOZ001>008-011>017-020>025-030>033-038>040-044>046-053-054-250800-
...NORTHERN AND CENTRAL MISSOURI...

CITY           SKY/WX    TMP DP  RH WIND       PRES   REMARKS
ST. JOSEPH     CLOUDY    26  20  77 NW15      30.08R WCI  14
MOSBY            N/A     28  19  69 NW10G16   30.07R WCI  19
WARRENSBURG    PTCLDY    27  18  69 W12       30.07R WCI  16
WHITEMAN AFB   MOCLDY    26  19  75 NW13      30.03S WCI  15
CLINTON        MOCLDY    27  18  69 NW10      30.07F WCI  17
SEDALIA        CLEAR     26  18  71 W17G24    30.03S WCI  13
WARSAW         NOT AVBL
CHILLICOTHE      N/A     26  17  68 NW12      30.02R WCI  16
KIRKSVILLE     CLOUDY    25  19  78 NW16      29.92R WCI  12

$$

MOZ041-047>049-056>058-063>065-088>090-097-250800-
...EASTERN AND SOUTHERN MISSOURI...

CITY           SKY/WX    TMP DP  RH WIND       PRES   REMARKS
ST. LOUIS INTL CLOUDY    33  19  56 W23G38    29.88R WCI  21
SPIRIT OF STL  CLOUDY    32  20  61 W26G37    29.90R WCI  18
COLUMBIA       FLURRIES  28  18  66 W16G29    29.96R WCI  16
JEFFERSON CITY MOCLDY    28  17  63 NW22G29   29.99R WCI  14
ROLLA          CLOUDY    28  17  63 W18G26    29.94S WCI  15
OSAGE BEACH    CLOUDY    30  19  63 NW8G22    30.02R WCI  22
SPRINGFIELD    CLOUDY    29  18  63 NW13G20   30.04R WCI  19
BRANSON        CLOUDY    30  18  59 NW15G22   30.04S WCI  19
JOPLIN         CLOUDY    29  19  66 NW17      30.13R WCI  17
WEST PLAINS    CLOUDY    32  20  61 W15G24    29.97R WCI  22

$$

IAZ060-094-KSZ022-034>040-054-083-096-NEZ052-066-093-250800-
...KANSAS...SOUTHEAST NEBRASKA AND IOWA...

CITY           SKY/WX    TMP DP  RH WIND       PRES   REMARKS
TOPEKA         CLEAR     25  20  81 W12       30.12R WCI  14
MANHATTAN      CLEAR     24  16  71 W7        30.15S WCI  16
EMPORIA        CLEAR     23  17  78 NW8       30.13F WCI  14
CHANUTE        CLEAR     25  17  72 NW9       30.14S WCI  15
WICHITA        CLEAR     24  16  71 NW13      30.18S WCI  12
OMAHA          PTCLDY    22  13  68 NW16      30.08R WCI   8
LINCOLN        CLEAR     25  16  68 N17       30.11S WCI  12
FALLS CITY     PTCLDY    24  18  77 NW14      30.08R WCI  12
LAMONI         PTCLDY    22  15  75 NW20G28   29.97R WCI   7
DES MOINES     MOCLDY    21  14  74 NW17G24   29.95R WCI   7

$$




USA.gov is the U.S. government's official web portal to all federal, state and local government web resources and services.